Time,TemperatureF,DewpointF,PressureIn,WindDirection,WindDirectionDegrees,WindSpeedMPH,WindSpeedGustMPH,Humidity,HourlyPrecipIn,Conditions,Clouds,dailyrainin,SoftwareType,DateUTC
2013-07-19 00:01:00,77.7,50.1,28.82,SE,135,0.0,0.0,38,0.00,,CLR,0.00,VWS V14.00,2013-07-19 05:01:00,
2013-07-19 00:06:00,77.7,50.8,28.82,SE,135,0.0,0.0,39,0.00,,CLR,0.00,VWS V14.00,2013-07-19 05:06:00,
2013-07-19 00:11:00,77.7,50.8,28.82,SE,135,0.0,3.1,39,0.00,,CLR,0.00,VWS V14.00,2013-07-19 05:11:00,
2013-07-19 00:16:00,77.5,50.7,28.82,SE,135,2.7,3.1,39,0.00,,CLR,0.00,VWS V14.00,2013-07-19 05:16:00,
2013-07-19 00:21:00,77.4,50.5,28.82,SE,135,0.0,2.7,39,0.00,,CLR,0.00,VWS V14.00,2013-07-19 05:21:00,
2013-07-19 00:26:00,77.4,51.2,28.82,SE,135,0.0,3.1,40,0.00,,CLR,0.00,VWS V14.00,2013-07-19 05:26:00,
2013-07-19 00:31:00,77.2,51.0,28.82,SE,135,0.0,0.0,40,0.00,,CLR,0.00,VWS V14.00,2013-07-19 05:31:00,
2013-07-19 00:36:00,77.0,50.9,28.82,SE,135,0.0,0.0,40,0.00,,CLR,0.00,VWS V14.00,2013-07-19 05:36:00,
2013-07-19 00:41:00,77.0,50.9,28.82,SE,135,0.0,0.0,40,0.00,,CLR,0.00,VWS V14.00,2013-07-19 05:41:00,
2013-07-19 00:46:00,77.0,50.9,28.82,SE,135,0.0,3.1,40,0.00,,CLR,0.00,VWS V14.00,2013-07-19 05:46:00,
2013-07-19 00:51:00,76.8,51.4,28.82,SE,135,0.0,0.0,41,0.00,,CLR,0.00,VWS V14.00,2013-07-19 05:51:00,
2013-07-19 00:56:00,76.8,51.4,28.82,SE,135,0.0,2.7,41,0.00,,CLR,0.00,VWS V14.00,2013-07-19 05:56:00,
2013-07-19 01:01:00,76.8,51.4,28.82,SE,135,0.0,0.0,41,0.00,,CLR,0.00,VWS V14.00,2013-07-19 06:01:00,
2013-07-19 01:06:00,76.8,51.4,28.82,SE,135,3.6,3.6,41,0.00,,CLR,0.00,VWS V14.00,2013-07-19 06:06:00,
2013-07-19 01:11:00,77.0,50.9,28.79,SE,134,0.0,3.6,40,0.00,,CLR,0.00,VWS V14.00,2013-07-19 06:11:00,
2013-07-19 01:16:00,77.0,50.9,28.79,SE,134,2.7,4.0,40,0.00,,CLR,0.00,VWS V14.00,2013-07-19 06:16:00,
2013-07-19 01:21:00,77.0,50.9,28.79,SE,133,4.0,4.0,40,0.00,,CLR,0.00,VWS V14.00,2013-07-19 06:21:00,
2013-07-19 01:26:00,77.0,50.9,28.79,SE,133,2.7,4.0,40,0.00,,CLR,0.00,VWS V14.00,2013-07-19 06:26:00,
2013-07-19 01:31:00,77.0,50.9,28.79,SE,133,3.6,3.6,40,0.00,,CLR,0.00,VWS V14.00,2013-07-19 06:31:00,
2013-07-19 01:36:00,77.0,50.9,28.79,SE,133,3.6,4.0,40,0.00,,CLR,0.00,VWS V14.00,2013-07-19 06:36:00,
2013-07-19 01:41:00,76.8,50.7,28.79,SE,133,3.6,3.6,40,0.00,,CLR,0.00,VWS V14.00,2013-07-19 06:41:00,
2013-07-19 01:46:00,76.8,50.7,28.79,SE,134,3.6,4.0,40,0.00,,CLR,0.00,VWS V14.00,2013-07-19 06:46:00,
2013-07-19 01:51:00,76.8,50.7,28.79,SE,134,3.1,3.1,40,0.00,,CLR,0.00,VWS V14.00,2013-07-19 06:51:00,
2013-07-19 01:56:00,76.8,50.7,28.79,SE,134,2.7,4.0,40,0.00,,CLR,0.00,VWS V14.00,2013-07-19 06:56:00,
2013-07-19 02:01:00,76.8,50.7,28.79,SE,134,4.0,4.0,40,0.00,,CLR,0.00,VWS V14.00,2013-07-19 07:01:00,
2013-07-19 02:06:00,76.6,51.2,28.79,SE,134,2.7,4.0,41,0.00,,CLR,0.00,VWS V14.00,2013-07-19 07:06:00,
2013-07-19 02:11:00,76.6,51.2,28.79,SE,134,2.7,3.1,41,0.00,,CLR,0.00,VWS V14.00,2013-07-19 07:11:00,
2013-07-19 02:16:00,76.5,51.0,28.79,SE,134,2.7,3.1,41,0.00,,CLR,0.00,VWS V14.00,2013-07-19 07:16:00,
2013-07-19 02:21:00,76.5,51.0,28.79,SE,134,3.1,3.1,41,0.00,,CLR,0.00,VWS V14.00,2013-07-19 07:21:00,
2013-07-19 02:26:00,76.5,51.0,28.79,SE,134,2.7,4.0,41,0.00,,CLR,0.00,VWS V14.00,2013-07-19 07:26:00,
2013-07-19 02:31:00,76.5,51.0,28.79,SE,141,0.0,3.6,41,0.00,,CLR,0.00,VWS V14.00,2013-07-19 07:31:00,
2013-07-19 02:36:00,76.3,50.9,28.79,SE,141,2.7,3.6,41,0.00,,CLR,0.00,VWS V14.00,2013-07-19 07:36:00,
2013-07-19 02:41:00,76.1,50.7,28.79,SE,141,0.0,0.0,41,0.00,,CLR,0.00,VWS V14.00,2013-07-19 07:41:00,
2013-07-19 02:46:00,75.9,50.5,28.79,SE,139,0.0,3.1,41,0.00,,CLR,0.00,VWS V14.00,2013-07-19 07:46:00,
2013-07-19 02:51:00,75.7,50.4,28.79,SE,139,0.0,0.0,41,0.00,,CLR,0.00,VWS V14.00,2013-07-19 07:51:00,
2013-07-19 02:56:00,75.4,50.7,28.79,SE,139,0.0,0.0,42,0.00,,CLR,0.00,VWS V14.00,2013-07-19 07:56:00,
2013-07-19 03:01:00,75.2,50.6,28.79,SE,139,0.0,0.0,42,0.00,,CLR,0.00,VWS V14.00,2013-07-19 08:01:00,
2013-07-19 03:06:00,75.2,51.2,28.79,SE,139,0.0,0.0,43,0.00,,CLR,0.00,VWS V14.00,2013-07-19 08:06:00,
2013-07-19 03:11:00,75.2,51.2,28.76,SE,139,0.0,0.0,43,0.00,,CLR,0.00,VWS V14.00,2013-07-19 08:11:00,
2013-07-19 03:16:00,75.4,51.3,28.76,SE,139,2.7,3.1,43,0.00,,CLR,0.00,VWS V14.00,2013-07-19 08:16:00,
2013-07-19 03:21:00,75.6,51.5,28.76,SE,139,2.7,3.1,43,0.00,,CLR,0.00,VWS V14.00,2013-07-19 08:21:00,
2013-07-19 03:26:00,75.6,50.9,28.79,SE,139,0.0,3.1,42,0.00,,CLR,0.00,VWS V14.00,2013-07-19 08:26:00,
2013-07-19 03:31:00,75.6,50.9,28.79,SE,138,2.7,4.0,42,0.00,,CLR,0.00,VWS V14.00,2013-07-19 08:31:00,
2013-07-19 03:36:00,75.7,51.0,28.79,SE,132,0.0,4.0,42,0.00,,CLR,0.00,VWS V14.00,2013-07-19 08:36:00,
2013-07-19 03:41:00,75.7,51.0,28.76,SE,133,3.1,4.0,42,0.00,,CLR,0.00,VWS V14.00,2013-07-19 08:41:00,
2013-07-19 03:46:00,75.7,51.0,28.76,SE,141,3.1,4.0,42,0.00,,CLR,0.00,VWS V14.00,2013-07-19 08:46:00,
2013-07-19 03:51:00,75.7,51.0,28.76,SE,129,3.6,4.0,42,0.00,,CLR,0.00,VWS V14.00,2013-07-19 08:51:00,
2013-07-19 03:56:00,75.7,50.4,28.76,SE,129,3.1,4.0,41,0.00,,CLR,0.00,VWS V14.00,2013-07-19 08:56:00,
2013-07-19 04:01:00,75.7,51.0,28.76,SE,129,2.7,3.1,42,0.00,,CLR,0.00,VWS V14.00,2013-07-19 09:01:00,
2013-07-19 04:06:00,75.6,50.9,28.76,SE,134,0.0,3.6,42,0.00,,CLR,0.00,VWS V14.00,2013-07-19 09:06:00,
2013-07-19 04:11:00,75.6,50.9,28.76,SE,135,3.1,3.1,42,0.00,,CLR,0.00,VWS V14.00,2013-07-19 09:11:00,
2013-07-19 04:16:00,75.6,50.9,28.76,SE,136,3.6,3.6,42,0.00,,CLR,0.00,VWS V14.00,2013-07-19 09:16:00,
2013-07-19 04:21:00,75.4,50.7,28.76,SE,135,2.7,3.1,42,0.00,,CLR,0.00,VWS V14.00,2013-07-19 09:21:00,
2013-07-19 04:26:00,75.4,50.7,28.76,SE,135,2.7,3.1,42,0.00,,CLR,0.00,VWS V14.00,2013-07-19 09:26:00,
2013-07-19 04:31:00,75.6,50.9,28.76,SE,142,3.6,3.6,42,0.00,,CLR,0.00,VWS V14.00,2013-07-19 09:31:00,
2013-07-19 04:36:00,75.4,50.7,28.76,SE,142,3.1,4.0,42,0.00,,CLR,0.00,VWS V14.00,2013-07-19 09:36:00,
2013-07-19 04:41:00,75.4,50.7,28.76,SE,139,0.0,3.6,42,0.00,,CLR,0.00,VWS V14.00,2013-07-19 09:41:00,
2013-07-19 04:46:00,75.2,50.6,28.76,SE,139,3.1,3.6,42,0.00,,CLR,0.00,VWS V14.00,2013-07-19 09:46:00,
2013-07-19 04:51:00,75.0,51.0,28.76,SE,136,2.7,3.1,43,0.00,,CLR,0.00,VWS V14.00,2013-07-19 09:51:00,
2013-07-19 04:56:00,75.2,50.6,28.76,SE,136,0.0,3.6,42,0.00,,CLR,0.00,VWS V14.00,2013-07-19 09:56:00,
2013-07-19 05:01:00,75.0,51.0,28.76,SE,136,0.0,0.0,43,0.00,,FEW100,0.00,VWS V14.00,2013-07-19 10:01:00,
2013-07-19 05:06:00,75.2,50.6,28.76,SE,135,0.0,3.6,42,0.00,,FEW100,0.00,VWS V14.00,2013-07-19 10:06:00,
2013-07-19 05:11:00,75.2,50.6,28.76,SE,131,4.5,4.5,42,0.00,,FEW100,0.00,VWS V14.00,2013-07-19 10:11:00,
2013-07-19 05:16:00,75.6,50.2,28.76,SE,136,2.7,4.5,41,0.00,,FEW100,0.00,VWS V14.00,2013-07-19 10:16:00,
2013-07-19 05:21:00,75.6,50.2,28.76,SE,136,2.2,4.0,41,0.00,,FEW100,0.00,VWS V14.00,2013-07-19 10:21:00,
2013-07-19 05:26:00,75.6,50.2,28.76,SE,138,3.6,5.4,41,0.00,,FEW100,0.00,VWS V14.00,2013-07-19 10:26:00,
2013-07-19 05:31:00,75.6,49.6,28.76,SE,134,2.7,2.7,40,0.00,,FEW100,0.00,VWS V14.00,2013-07-19 10:31:00,
2013-07-19 05:36:00,75.7,49.7,28.76,SE,135,2.7,3.6,40,0.00,,FEW100,0.00,VWS V14.00,2013-07-19 10:36:00,
2013-07-19 05:41:00,75.7,49.0,28.76,SE,133,0.0,0.0,39,0.00,,FEW100,0.00,VWS V14.00,2013-07-19 10:41:00,
2013-07-19 05:46:00,75.7,49.0,28.76,SE,133,2.7,3.6,39,0.00,,FEW100,0.00,VWS V14.00,2013-07-19 10:46:00,
2013-07-19 05:51:00,75.7,49.0,28.76,SE,133,0.0,3.6,39,0.00,,FEW100,0.00,VWS V14.00,2013-07-19 10:51:00,
2013-07-19 05:56:00,75.6,48.9,28.76,SE,133,0.0,3.6,39,0.00,,FEW100,0.00,VWS V14.00,2013-07-19 10:56:00,
2013-07-19 06:01:00,75.7,49.0,28.76,SE,133,2.7,2.7,39,0.00,,FEW180,0.00,VWS V14.00,2013-07-19 11:01:00,
2013-07-19 06:06:00,75.7,49.0,28.76,SE,137,0.0,3.6,39,0.00,,FEW180,0.00,VWS V14.00,2013-07-19 11:06:00,
2013-07-19 06:11:00,75.7,49.0,28.76,SE,137,3.1,3.1,39,0.00,,FEW180,0.00,VWS V14.00,2013-07-19 11:11:00,
2013-07-19 06:16:00,75.7,49.0,28.76,SE,137,2.7,3.6,39,0.00,,FEW180,0.00,VWS V14.00,2013-07-19 11:16:00,
2013-07-19 06:21:00,75.9,49.2,28.76,SE,135,0.0,4.9,39,0.00,,FEW180,0.00,VWS V14.00,2013-07-19 11:21:00,
2013-07-19 06:26:00,76.3,49.5,28.76,SE,135,0.0,4.9,39,0.00,,FEW180,0.00,VWS V14.00,2013-07-19 11:26:00,
2013-07-19 06:31:00,76.5,48.3,28.76,SE,135,0.0,3.1,37,0.00,,FEW180,0.00,VWS V14.00,2013-07-19 11:31:00,
2013-07-19 06:36:00,77.4,49.1,28.76,SE,135,0.0,3.1,37,0.00,,FEW180,0.00,VWS V14.00,2013-07-19 11:36:00,
2013-07-19 06:41:00,79.0,48.2,28.76,SE,135,0.0,0.0,34,0.00,,FEW180,0.00,VWS V14.00,2013-07-19 11:41:00,
2013-07-19 06:46:00,80.2,46.9,28.76,SE,135,0.0,0.0,31,0.00,,FEW180,0.00,VWS V14.00,2013-07-19 11:46:00,
2013-07-19 06:51:00,80.8,45.6,28.76,SE,131,0.0,0.0,29,0.00,,FEW180,0.00,VWS V14.00,2013-07-19 11:51:00,
2013-07-19 06:56:00,79.5,45.4,28.76,SE,131,2.2,3.6,30,0.00,,FEW180,0.00,VWS V14.00,2013-07-19 11:56:00,
2013-07-19 07:01:00,78.3,46.0,28.76,SE,131,3.1,3.6,32,0.00,,FEW160,0.00,VWS V14.00,2013-07-19 12:01:00,
2013-07-19 07:06:00,77.7,46.3,28.76,SE,128,2.7,4.0,33,0.00,,FEW160,0.00,VWS V14.00,2013-07-19 12:06:00,
2013-07-19 07:11:00,77.5,47.0,28.76,SE,130,2.2,4.9,34,0.00,,FEW160,0.00,VWS V14.00,2013-07-19 12:11:00,
2013-07-19 07:16:00,77.7,47.1,28.76,SE,131,0.0,4.9,34,0.00,,FEW160,0.00,VWS V14.00,2013-07-19 12:16:00,
2013-07-19 07:21:00,77.9,47.3,28.76,SE,126,0.0,3.1,34,0.00,,FEW160,0.00,VWS V14.00,2013-07-19 12:21:00,
2013-07-19 07:26:00,77.9,47.3,28.76,SE,134,2.7,3.1,34,0.00,,FEW160,0.00,VWS V14.00,2013-07-19 12:26:00,
2013-07-19 07:31:00,80.6,49.7,28.76,SE,134,0.0,2.7,34,0.00,,FEW160,0.00,VWS V14.00,2013-07-19 12:31:00,
2013-07-19 07:36:00,82.9,47.5,28.76,SE,134,0.0,3.1,29,0.00,,FEW160,0.00,VWS V14.00,2013-07-19 12:36:00,
2013-07-19 07:41:00,83.1,42.6,28.76,SE,134,0.0,3.1,24,0.00,,FEW160,0.00,VWS V14.00,2013-07-19 12:41:00,
2013-07-19 07:46:00,80.8,45.6,28.76,SE,134,2.2,3.1,29,0.00,,FEW160,0.00,VWS V14.00,2013-07-19 12:46:00,
2013-07-19 07:51:00,81.1,47.7,28.76,SE,133,2.2,3.6,31,0.00,,FEW160,0.00,VWS V14.00,2013-07-19 12:51:00,
2013-07-19 07:56:00,84.6,44.9,28.76,SSE,150,0.0,4.0,25,0.00,,FEW160,0.00,VWS V14.00,2013-07-19 12:56:00,
2013-07-19 08:01:00,87.1,42.5,28.76,SE,144,2.7,4.0,21,0.00,,FEW150,0.00,VWS V14.00,2013-07-19 13:01:00,
2013-07-19 08:06:00,88.7,41.2,28.76,ESE,123,5.4,5.4,19,0.00,,FEW150,0.00,VWS V14.00,2013-07-19 13:06:00,
2013-07-19 08:11:00,89.6,40.5,28.76,SE,131,3.1,3.6,18,0.00,,FEW150,0.00,VWS V14.00,2013-07-19 13:11:00,
2013-07-19 08:16:00,89.6,40.5,28.76,East,89,3.6,5.8,18,0.00,,FEW150,0.00,VWS V14.00,2013-07-19 13:16:00,
2013-07-19 08:21:00,88.3,39.5,28.76,SE,127,0.0,3.6,18,0.00,,FEW150,0.00,VWS V14.00,2013-07-19 13:21:00,
2013-07-19 08:26:00,87.1,41.2,28.76,SSE,152,0.0,4.0,20,0.00,,FEW150,0.00,VWS V14.00,2013-07-19 13:26:00,
2013-07-19 08:31:00,89.6,40.5,28.76,ESE,121,2.7,2.7,18,0.00,,FEW150,0.00,VWS V14.00,2013-07-19 13:31:00,
2013-07-19 08:36:00,89.2,40.2,28.76,SE,129,3.6,5.4,18,0.00,,FEW150,0.00,VWS V14.00,2013-07-19 13:36:00,
2013-07-19 08:41:00,87.3,40.0,28.79,East,100,3.6,3.6,19,0.00,,FEW150,0.00,VWS V14.00,2013-07-19 13:41:00,
2013-07-19 08:46:00,86.2,41.7,28.79,SE,146,0.0,3.6,21,0.00,,FEW150,0.00,VWS V14.00,2013-07-19 13:46:00,
2013-07-19 08:51:00,85.3,43.3,28.79,SSE,159,0.0,0.0,23,0.00,,FEW150,0.00,VWS V14.00,2013-07-19 13:51:00,
2013-07-19 08:56:00,84.7,44.0,28.79,SE,129,0.0,4.9,24,0.00,,FEW150,0.00,VWS V14.00,2013-07-19 13:56:00,
2013-07-19 09:01:00,84.9,43.0,28.79,SW,222,5.4,5.4,23,0.00,,SCT130,0.00,VWS V14.00,2013-07-19 14:01:00,
2013-07-19 09:06:00,84.9,44.1,28.79,SE,124,0.0,5.4,24,0.00,,SCT130,0.00,VWS V14.00,2013-07-19 14:06:00,
2013-07-19 09:11:00,84.9,43.0,28.79,SE,128,0.0,3.6,23,0.00,,SCT130,0.00,VWS V14.00,2013-07-19 14:11:00,
2013-07-19 09:16:00,84.0,45.5,28.79,SE,143,3.1,4.9,26,0.00,,SCT130,0.00,VWS V14.00,2013-07-19 14:16:00,
2013-07-19 09:21:00,83.5,46.0,28.79,SE,136,0.0,2.2,27,0.00,,SCT130,0.00,VWS V14.00,2013-07-19 14:21:00,
2013-07-19 09:26:00,83.1,46.7,28.79,ESE,120,0.0,2.7,28,0.00,,SCT130,0.00,VWS V14.00,2013-07-19 14:26:00,
2013-07-19 09:31:00,83.1,46.7,28.79,SE,132,2.7,3.1,28,0.00,,SCT130,0.00,VWS V14.00,2013-07-19 14:31:00,
2013-07-19 09:36:00,83.1,47.6,28.79,SE,134,3.1,4.0,29,0.00,,SCT130,0.00,VWS V14.00,2013-07-19 14:36:00,
2013-07-19 09:41:00,83.5,47.9,28.79,SE,132,0.0,0.0,29,0.00,,SCT130,0.00,VWS V14.00,2013-07-19 14:41:00,
2013-07-19 09:46:00,84.9,49.2,28.79,SE,129,0.0,3.6,29,0.00,,SCT130,0.00,VWS V14.00,2013-07-19 14:46:00,
2013-07-19 09:51:00,87.1,46.0,28.79,SE,128,0.0,0.0,24,0.00,,SCT130,0.00,VWS V14.00,2013-07-19 14:51:00,
2013-07-19 09:56:00,87.6,44.1,28.79,SE,134,2.2,2.7,22,0.00,,SCT130,0.00,VWS V14.00,2013-07-19 14:56:00,
2013-07-19 10:01:00,88.3,44.7,28.79,SE,134,0.0,0.0,22,0.00,,-RA,0.00,VWS V14.00,2013-07-19 15:01:00,
2013-07-19 10:06:00,89.2,44.2,28.79,SE,134,0.0,0.0,21,0.00,,-RA,0.00,VWS V14.00,2013-07-19 15:06:00,
2013-07-19 10:11:00,91.0,43.1,28.79,SE,131,0.0,2.2,19,0.00,,-RA,0.00,VWS V14.00,2013-07-19 15:11:00,
2013-07-19 10:16:00,91.8,42.3,28.79,ESE,102,0.0,2.2,18,0.00,,-RA,0.00,VWS V14.00,2013-07-19 15:16:00,
2013-07-19 10:21:00,92.8,41.7,28.79,SE,136,0.0,3.6,17,0.00,,-RA,0.00,VWS V14.00,2013-07-19 15:21:00,
2013-07-19 10:26:00,93.9,42.5,28.79,SE,140,2.2,3.6,17,0.00,,-RA,0.00,VWS V14.00,2013-07-19 15:26:00,
2013-07-19 10:31:00,91.8,40.8,28.79,SE,136,0.0,0.0,17,0.00,,-RA,0.00,VWS V14.00,2013-07-19 15:31:00,
2013-07-19 10:36:00,91.8,42.3,28.79,SE,136,0.0,0.0,18,0.00,,-RA,0.00,VWS V14.00,2013-07-19 15:36:00,
2013-07-19 10:41:00,95.4,42.1,28.79,SE,131,2.7,5.8,16,0.00,,-RA,0.00,VWS V14.00,2013-07-19 15:41:00,
2013-07-19 10:46:00,99.1,39.7,28.79,SE,143,0.0,5.8,13,0.00,,-RA,0.00,VWS V14.00,2013-07-19 15:46:00,
2013-07-19 10:51:00,101.1,39.2,28.79,SSE,153,2.7,4.9,12,0.00,,-RA,0.00,VWS V14.00,2013-07-19 15:51:00,
2013-07-19 10:56:00,100.4,34.0,28.79,East,99,3.6,6.3,10,0.00,,-RA,0.00,VWS V14.00,2013-07-19 15:56:00,
2013-07-19 11:01:00,97.9,38.8,28.79,NE,52,0.0,3.6,13,0.00,,BKN250,0.00,VWS V14.00,2013-07-19 16:01:00,
2013-07-19 11:06:00,99.1,39.7,28.79,SSE,162,0.0,6.3,13,0.00,,BKN250,0.00,VWS V14.00,2013-07-19 16:06:00,
2013-07-19 11:11:00,101.7,35.0,28.76,SE,143,2.2,2.2,10,0.00,,BKN250,0.00,VWS V14.00,2013-07-19 16:11:00,
2013-07-19 11:16:00,102.9,33.3,28.76,SW,224,3.1,4.5,9,0.00,,BKN250,0.00,VWS V14.00,2013-07-19 16:16:00,
2013-07-19 11:21:00,101.8,35.1,28.76,SE,137,3.6,5.4,10,0.00,,BKN250,0.00,VWS V14.00,2013-07-19 16:21:00,
2013-07-19 11:26:00,102.4,32.9,28.76,East,88,0.0,5.4,9,0.00,,BKN250,0.00,VWS V14.00,2013-07-19 16:26:00,
2013-07-19 11:31:00,102.7,33.2,28.76,SW,215,4.0,4.0,9,0.00,,BKN250,0.00,VWS V14.00,2013-07-19 16:31:00,
2013-07-19 11:36:00,102.0,35.3,28.76,SE,128,4.5,6.7,10,0.00,,BKN250,0.00,VWS V14.00,2013-07-19 16:36:00,
2013-07-19 11:41:00,101.1,34.6,28.76,SSE,154,3.6,5.4,10,0.00,,BKN250,0.00,VWS V14.00,2013-07-19 16:41:00,
2013-07-19 11:46:00,101.1,34.6,28.76,SE,128,3.1,5.4,10,0.00,,BKN250,0.00,VWS V14.00,2013-07-19 16:46:00,
2013-07-19 11:51:00,103.1,33.4,28.76,SE,131,0.0,3.1,9,0.00,,BKN250,0.00,VWS V14.00,2013-07-19 16:51:00,
2013-07-19 11:56:00,104.0,34.1,28.76,SE,144,0.0,6.3,9,0.00,,BKN250,0.00,VWS V14.00,2013-07-19 16:56:00,
2013-07-19 12:01:00,102.7,33.2,28.76,SE,131,3.1,3.1,9,0.00,,BKN250,0.00,VWS V14.00,2013-07-19 17:01:00,
2013-07-19 12:06:00,99.5,33.4,28.76,SE,136,3.1,6.3,10,0.00,,BKN250,0.00,VWS V14.00,2013-07-19 17:06:00,
2013-07-19 12:11:00,99.9,33.6,28.76,SE,134,2.7,4.9,10,0.00,,BKN250,0.00,VWS V14.00,2013-07-19 17:11:00,
2013-07-19 12:16:00,99.5,33.4,28.76,WSW,238,2.7,7.2,10,0.00,,BKN250,0.00,VWS V14.00,2013-07-19 17:16:00,
2013-07-19 12:21:00,101.3,34.7,28.76,SE,145,4.0,4.0,10,0.00,,BKN250,0.00,VWS V14.00,2013-07-19 17:21:00,
2013-07-19 12:26:00,103.5,33.7,28.76,East,91,2.2,5.8,9,0.00,,BKN250,0.00,VWS V14.00,2013-07-19 17:26:00,
2013-07-19 12:31:00,102.7,33.2,28.76,SSW,196,0.0,4.0,9,0.00,,BKN250,0.00,VWS V14.00,2013-07-19 17:31:00,
2013-07-19 12:36:00,102.0,35.3,28.76,SE,127,3.6,4.0,10,0.00,,BKN250,0.00,VWS V14.00,2013-07-19 17:36:00,
2013-07-19 12:41:00,102.2,32.8,28.76,ESE,121,6.3,10.5,9,0.00,,BKN250,0.00,VWS V14.00,2013-07-19 17:41:00,
2013-07-19 12:46:00,101.5,34.9,28.76,SE,137,4.9,10.5,10,0.00,,BKN250,0.00,VWS V14.00,2013-07-19 17:46:00,
2013-07-19 12:51:00,100.0,33.8,28.76,SE,136,5.4,8.1,10,0.00,,BKN250,0.00,VWS V14.00,2013-07-19 17:51:00,
2013-07-19 12:56:00,97.3,34.1,28.76,SE,143,0.0,8.1,11,0.00,,BKN250,0.00,VWS V14.00,2013-07-19 17:56:00,
2013-07-19 13:01:00,96.4,39.5,28.76,SE,131,2.7,4.0,14,0.00,,BKN250,0.00,VWS V14.00,2013-07-19 18:01:00,
2013-07-19 13:06:00,97.7,38.6,28.76,SE,145,3.6,5.4,13,0.00,,BKN250,0.00,VWS V14.00,2013-07-19 18:06:00,
2013-07-19 13:11:00,99.7,40.2,28.76,South,184,2.2,4.0,13,0.00,,BKN250,0.00,VWS V14.00,2013-07-19 18:11:00,
2013-07-19 13:16:00,100.2,40.6,28.76,South,188,0.0,6.3,13,0.00,,BKN250,0.00,VWS V14.00,2013-07-19 18:16:00,
2013-07-19 13:21:00,97.0,38.0,28.76,SE,132,4.9,5.8,13,0.00,,BKN250,0.00,VWS V14.00,2013-07-19 18:21:00,
2013-07-19 13:26:00,98.2,39.0,28.76,SE,144,3.6,5.8,13,0.00,,BKN250,0.00,VWS V14.00,2013-07-19 18:26:00,
2013-07-19 13:31:00,100.9,39.1,28.76,East,87,3.1,4.5,12,0.00,,BKN250,0.00,VWS V14.00,2013-07-19 18:31:00,
2013-07-19 13:36:00,102.9,40.6,28.76,SW,214,3.1,6.3,12,0.00,,BKN250,0.00,VWS V14.00,2013-07-19 18:36:00,
2013-07-19 13:41:00,105.4,35.2,28.76,SSE,156,5.4,7.2,9,0.00,,BKN250,0.00,VWS V14.00,2013-07-19 18:41:00,
2013-07-19 13:46:00,105.3,35.0,28.76,SW,217,3.6,7.2,9,0.00,,BKN250,0.00,VWS V14.00,2013-07-19 18:46:00,
2013-07-19 13:51:00,106.2,35.7,28.76,SW,222,0.0,4.9,9,0.00,,BKN250,0.00,VWS V14.00,2013-07-19 18:51:00,
2013-07-19 13:56:00,103.6,33.8,28.76,West,262,0.0,4.9,9,0.00,,BKN250,0.00,VWS V14.00,2013-07-19 18:56:00,
2013-07-19 14:01:00,101.7,35.0,28.76,East,87,2.7,3.6,10,0.00,,BKN250,0.00,VWS V14.00,2013-07-19 19:01:00,
2013-07-19 14:06:00,101.3,34.7,28.76,East,93,3.1,5.8,10,0.00,,BKN250,0.00,VWS V14.00,2013-07-19 19:06:00,
2013-07-19 14:11:00,100.0,40.4,28.76,SE,125,6.3,8.3,13,0.00,,BKN250,0.00,VWS V14.00,2013-07-19 19:11:00,
2013-07-19 14:16:00,97.2,38.2,28.76,SSE,154,0.0,8.3,13,0.00,,BKN250,0.00,VWS V14.00,2013-07-19 19:16:00,
2013-07-19 14:21:00,101.5,39.5,28.76,SE,131,3.6,4.0,12,0.00,,BKN250,0.00,VWS V14.00,2013-07-19 19:21:00,
2013-07-19 14:26:00,102.0,39.9,28.73,SE,124,0.0,7.6,12,0.00,,BKN250,0.00,VWS V14.00,2013-07-19 19:26:00,
2013-07-19 14:31:00,104.4,34.4,28.73,SSE,147,4.0,6.3,9,0.00,,BKN250,0.00,VWS V14.00,2013-07-19 19:31:00,
2013-07-19 14:36:00,103.5,33.7,28.73,SW,218,5.8,6.3,9,0.00,,BKN250,0.00,VWS V14.00,2013-07-19 19:36:00,
2013-07-19 14:41:00,101.1,34.6,28.73,SW,226,3.6,7.6,10,0.00,,BKN250,0.00,VWS V14.00,2013-07-19 19:41:00,
2013-07-19 14:46:00,102.7,40.5,28.73,ESE,115,2.7,7.6,12,0.00,,BKN250,0.00,VWS V14.00,2013-07-19 19:46:00,
2013-07-19 14:51:00,104.4,41.7,28.73,West,265,0.0,2.2,12,0.00,,BKN250,0.00,VWS V14.00,2013-07-19 19:51:00,
2013-07-19 14:56:00,104.7,34.6,28.73,SE,133,3.1,5.8,9,0.00,,BKN250,0.00,VWS V14.00,2013-07-19 19:56:00,
2013-07-19 15:01:00,105.8,35.4,28.73,SE,134,3.6,5.4,9,0.00,,SCT200,0.00,VWS V14.00,2013-07-19 20:01:00,
2013-07-19 15:06:00,105.6,35.3,28.73,SSE,150,0.0,5.4,9,0.00,,SCT200,0.00,VWS V14.00,2013-07-19 20:06:00,
2013-07-19 15:11:00,104.2,34.2,28.73,ESE,117,0.0,3.6,9,0.00,,SCT200,0.00,VWS V14.00,2013-07-19 20:11:00,
2013-07-19 15:16:00,99.0,39.6,28.73,ENE,75,0.0,5.8,13,0.00,,SCT200,0.00,VWS V14.00,2013-07-19 20:16:00,
2013-07-19 15:21:00,96.1,39.2,28.73,SE,138,0.0,3.6,14,0.00,,SCT200,0.00,VWS V14.00,2013-07-19 20:21:00,
2013-07-19 15:26:00,100.6,38.8,28.73,South,186,0.0,5.8,12,0.00,,SCT200,0.00,VWS V14.00,2013-07-19 20:26:00,
2013-07-19 15:31:00,103.6,41.1,28.73,SW,220,2.7,3.1,12,0.00,,SCT200,0.00,VWS V14.00,2013-07-19 20:31:00,
2013-07-19 15:36:00,103.6,41.1,28.73,WSW,238,3.1,5.8,12,0.00,,SCT200,0.00,VWS V14.00,2013-07-19 20:36:00,
2013-07-19 15:41:00,102.4,40.2,28.73,SE,131,3.6,4.5,12,0.00,,SCT200,0.00,VWS V14.00,2013-07-19 20:41:00,
2013-07-19 15:46:00,101.7,39.6,28.73,SW,220,3.6,8.1,12,0.00,,SCT200,0.00,VWS V14.00,2013-07-19 20:46:00,
2013-07-19 15:51:00,102.7,40.5,28.73,NNW,343,0.0,8.1,12,0.00,,SCT200,0.00,VWS V14.00,2013-07-19 20:51:00,
2013-07-19 15:56:00,104.9,42.1,28.73,SE,127,2.7,8.1,12,0.00,,SCT200,0.00,VWS V14.00,2013-07-19 20:56:00,
2013-07-19 16:01:00,105.3,35.0,28.73,SE,125,3.1,8.1,9,0.00,,SCT200,0.00,VWS V14.00,2013-07-19 21:01:00,
2013-07-19 16:06:00,106.5,36.0,28.73,WSW,243,2.2,8.1,9,0.00,,SCT200,0.00,VWS V14.00,2013-07-19 21:06:00,
2013-07-19 16:11:00,102.9,40.6,28.73,SW,216,2.2,4.9,12,0.00,,SCT200,0.00,VWS V14.00,2013-07-19 21:11:00,
2013-07-19 16:16:00,104.5,41.8,28.73,South,189,3.6,5.8,12,0.00,,SCT200,0.00,VWS V14.00,2013-07-19 21:16:00,
2013-07-19 16:21:00,106.9,36.2,28.73,West,276,7.6,7.6,9,0.00,,SCT200,0.00,VWS V14.00,2013-07-19 21:21:00,
2013-07-19 16:26:00,103.1,33.4,28.73,WSW,245,6.3,7.6,9,0.00,,SCT200,0.00,VWS V14.00,2013-07-19 21:26:00,
2013-07-19 16:31:00,102.4,32.9,28.73,SW,229,6.3,6.3,9,0.00,,SCT200,0.00,VWS V14.00,2013-07-19 21:31:00,
2013-07-19 16:36:00,102.7,33.2,28.73,West,268,4.0,11.0,9,0.00,,SCT200,0.00,VWS V14.00,2013-07-19 21:36:00,
2013-07-19 16:41:00,102.4,32.9,28.73,WNW,291,6.3,6.3,9,0.00,,SCT200,0.00,VWS V14.00,2013-07-19 21:41:00,
2013-07-19 16:46:00,99.1,33.1,28.73,South,181,2.2,6.3,10,0.00,,SCT200,0.00,VWS V14.00,2013-07-19 21:46:00,
2013-07-19 16:51:00,97.2,34.0,28.73,NW,315,2.2,2.7,11,0.00,,SCT200,0.00,VWS V14.00,2013-07-19 21:51:00,
2013-07-19 16:56:00,96.4,33.4,28.73,WSW,252,4.0,5.8,11,0.00,,SCT200,0.00,VWS V14.00,2013-07-19 21:56:00,
2013-07-19 17:01:00,98.6,32.7,28.73,West,261,5.8,5.8,10,0.00,,SCT200,0.00,VWS V14.00,2013-07-19 22:01:00,
2013-07-19 17:06:00,103.6,33.8,28.73,ESE,108,2.7,5.8,9,0.00,,SCT200,0.00,VWS V14.00,2013-07-19 22:06:00,
2013-07-19 17:11:00,102.7,33.2,28.73,WNW,296,3.1,4.9,9,0.00,,SCT200,0.00,VWS V14.00,2013-07-19 22:11:00,
2013-07-19 17:16:00,103.8,34.0,28.73,SSW,212,7.6,8.3,9,0.00,,SCT200,0.00,VWS V14.00,2013-07-19 22:16:00,
2013-07-19 17:21:00,102.2,32.8,28.73,SE,126,2.7,3.1,9,0.00,,SCT200,0.00,VWS V14.00,2013-07-19 22:21:00,
2013-07-19 17:26:00,101.8,35.1,28.73,SW,234,5.4,6.3,10,0.00,,SCT200,0.00,VWS V14.00,2013-07-19 22:26:00,
2013-07-19 17:31:00,101.3,34.7,28.73,SSW,196,0.0,7.6,10,0.00,,SCT200,0.00,VWS V14.00,2013-07-19 22:31:00,
2013-07-19 17:36:00,102.0,35.3,28.73,SW,219,3.6,7.6,10,0.00,,SCT200,0.00,VWS V14.00,2013-07-19 22:36:00,
2013-07-19 17:41:00,102.4,32.9,28.73,SW,223,6.3,7.6,9,0.00,,SCT200,0.00,VWS V14.00,2013-07-19 22:41:00,
2013-07-19 17:46:00,103.3,33.6,28.70,WSW,253,0.0,7.6,9,0.00,,SCT200,0.00,VWS V14.00,2013-07-19 22:46:00,
2013-07-19 17:51:00,103.1,33.4,28.70,SW,224,4.5,4.5,9,0.00,,SCT200,0.00,VWS V14.00,2013-07-19 22:51:00,
2013-07-19 17:56:00,104.7,34.6,28.70,ESE,123,0.0,4.9,9,0.00,,SCT200,0.00,VWS V14.00,2013-07-19 22:56:00,
2013-07-19 18:01:00,105.4,35.2,28.70,SW,230,3.1,8.1,9,0.00,,SCT200,0.00,VWS V14.00,2013-07-19 23:01:00,
2013-07-19 18:06:00,103.5,33.7,28.70,SW,220,5.4,8.1,9,0.00,,SCT200,0.00,VWS V14.00,2013-07-19 23:06:00,
2013-07-19 18:11:00,104.0,34.1,28.70,West,281,0.0,2.7,9,0.00,,SCT200,0.00,VWS V14.00,2013-07-19 23:11:00,
2013-07-19 18:16:00,104.4,34.4,28.70,South,181,2.7,5.8,9,0.00,,SCT200,0.00,VWS V14.00,2013-07-19 23:16:00,
2013-07-19 18:21:00,104.4,34.4,28.70,SW,218,4.5,4.5,9,0.00,,SCT200,0.00,VWS V14.00,2013-07-19 23:21:00,
2013-07-19 18:26:00,103.5,33.7,28.70,SE,129,0.0,4.9,9,0.00,,SCT200,0.00,VWS V14.00,2013-07-19 23:26:00,
2013-07-19 18:31:00,101.7,35.0,28.70,West,275,0.0,0.0,10,0.00,,SCT200,0.00,VWS V14.00,2013-07-19 23:31:00,
2013-07-19 18:36:00,100.4,34.0,28.70,West,263,0.0,8.7,10,0.00,,SCT200,0.00,VWS V14.00,2013-07-19 23:36:00,
2013-07-19 18:41:00,101.1,34.6,28.70,West,279,0.0,8.1,10,0.00,,SCT200,0.00,VWS V14.00,2013-07-19 23:41:00,
2013-07-19 18:46:00,100.6,34.2,28.70,WNW,303,0.0,8.1,10,0.00,,SCT200,0.00,VWS V14.00,2013-07-19 23:46:00,
2013-07-19 18:51:00,100.6,34.2,28.70,SSW,204,0.0,3.6,10,0.00,,SCT200,0.00,VWS V14.00,2013-07-19 23:51:00,
2013-07-19 18:56:00,99.7,33.5,28.70,WSW,251,4.0,8.1,10,0.00,,SCT200,0.00,VWS V14.00,2013-07-19 23:56:00,
2013-07-19 19:01:00,99.5,33.4,28.70,SSE,164,0.0,2.2,10,0.00,,SCT250,0.00,VWS V14.00,2013-07-20 00:01:00,
2013-07-19 19:06:00,100.4,34.0,28.70,SSW,196,2.2,5.8,10,0.00,,SCT250,0.00,VWS V14.00,2013-07-20 00:06:00,
2013-07-19 19:11:00,100.2,33.9,28.70,WSW,242,2.7,2.7,10,0.00,,SCT250,0.00,VWS V14.00,2013-07-20 00:11:00,
2013-07-19 19:16:00,99.1,33.1,28.70,WSW,253,5.8,6.3,10,0.00,,SCT250,0.00,VWS V14.00,2013-07-20 00:16:00,
2013-07-19 19:21:00,99.3,33.2,28.70,WSW,239,3.6,3.6,10,0.00,,SCT250,0.00,VWS V14.00,2013-07-20 00:21:00,
2013-07-19 19:26:00,95.7,32.9,28.70,WNW,300,0.0,5.8,11,0.00,,SCT250,0.00,VWS V14.00,2013-07-20 00:26:00,
2013-07-19 19:31:00,92.8,32.8,28.70,SSW,199,2.7,4.0,12,0.00,,SCT250,0.00,VWS V14.00,2013-07-20 00:31:00,
2013-07-19 19:36:00,93.6,31.2,28.70,SW,231,2.7,8.1,11,0.00,,SCT250,0.00,VWS V14.00,2013-07-20 00:36:00,
2013-07-19 19:41:00,92.3,32.4,28.73,West,265,0.0,3.6,12,0.00,,SCT250,0.00,VWS V14.00,2013-07-20 00:41:00,
2013-07-19 19:46:00,90.1,36.3,28.73,SW,220,4.9,6.3,15,0.00,,SCT250,0.00,VWS V14.00,2013-07-20 00:46:00,
2013-07-19 19:51:00,88.7,35.2,28.73,NW,311,3.6,8.7,15,0.00,,SCT250,0.00,VWS V14.00,2013-07-20 00:51:00,
2013-07-19 19:56:00,88.2,39.4,28.73,WSW,237,3.1,8.7,18,0.00,,SCT250,0.00,VWS V14.00,2013-07-20 00:56:00,
2013-07-19 20:01:00,88.7,39.8,28.73,SSW,194,5.4,5.4,18,0.00,,SCT250,0.00,VWS V14.00,2013-07-20 01:01:00,
2013-07-19 20:06:00,88.2,39.4,28.73,WSW,255,0.0,5.8,18,0.00,,SCT250,0.00,VWS V14.00,2013-07-20 01:06:00,
2013-07-19 20:11:00,87.1,38.5,28.73,WNW,285,2.7,7.6,18,0.00,,SCT250,0.00,VWS V14.00,2013-07-20 01:11:00,
2013-07-19 20:16:00,86.2,39.1,28.73,West,265,4.0,7.6,19,0.00,,SCT250,0.00,VWS V14.00,2013-07-20 01:16:00,
2013-07-19 20:21:00,85.5,39.9,28.73,West,269,0.0,4.0,20,0.00,,SCT250,0.00,VWS V14.00,2013-07-20 01:21:00,
2013-07-19 20:26:00,84.9,39.4,28.73,WNW,282,0.0,4.9,20,0.00,,SCT250,0.00,VWS V14.00,2013-07-20 01:26:00,
2013-07-19 20:31:00,84.6,39.1,28.73,SW,225,4.0,7.6,20,0.00,,SCT250,0.00,VWS V14.00,2013-07-20 01:31:00,
2013-07-19 20:36:00,84.0,38.7,28.73,SW,219,3.1,7.6,20,0.00,,SCT250,0.00,VWS V14.00,2013-07-20 01:36:00,
2013-07-19 20:41:00,83.7,37.1,28.73,WSW,252,2.2,5.8,19,0.00,,SCT250,0.00,VWS V14.00,2013-07-20 01:41:00,
2013-07-19 20:46:00,83.5,36.9,28.73,WSW,254,2.2,5.8,19,0.00,,SCT250,0.00,VWS V14.00,2013-07-20 01:46:00,
2013-07-19 20:51:00,82.9,37.8,28.73,West,265,3.1,4.0,20,0.00,,SCT250,0.00,VWS V14.00,2013-07-20 01:51:00,
2013-07-19 20:56:00,82.8,37.6,28.73,West,259,3.1,4.9,20,0.00,,SCT250,0.00,VWS V14.00,2013-07-20 01:56:00,
2013-07-19 21:01:00,82.4,37.3,28.73,WSW,253,0.0,3.1,20,0.00,,SCT250,0.00,VWS V14.00,2013-07-20 02:01:00,
2013-07-19 21:06:00,81.7,38.0,28.73,West,265,0.0,4.0,21,0.00,,SCT250,0.00,VWS V14.00,2013-07-20 02:06:00,
2013-07-19 21:11:00,81.3,38.9,28.73,West,272,0.0,3.1,22,0.00,,SCT250,0.00,VWS V14.00,2013-07-20 02:11:00,
2013-07-19 21:16:00,81.1,38.7,28.73,West,280,3.1,4.9,22,0.00,,SCT250,0.00,VWS V14.00,2013-07-20 02:16:00,
2013-07-19 21:21:00,81.5,37.8,28.73,West,267,4.9,4.9,21,0.00,,SCT250,0.00,VWS V14.00,2013-07-20 02:21:00,
2013-07-19 21:26:00,81.3,37.7,28.73,SSW,193,3.1,5.8,21,0.00,,SCT250,0.00,VWS V14.00,2013-07-20 02:26:00,
2013-07-19 21:31:00,81.1,36.3,28.73,SW,229,2.7,4.5,20,0.00,,SCT250,0.00,VWS V14.00,2013-07-20 02:31:00,
2013-07-19 21:36:00,81.1,36.3,28.73,WNW,291,0.0,6.3,20,0.00,,SCT250,0.00,VWS V14.00,2013-07-20 02:36:00,
2013-07-19 21:41:00,80.8,36.0,28.73,West,274,2.7,2.7,20,0.00,,SCT250,0.00,VWS V14.00,2013-07-20 02:41:00,
2013-07-19 21:46:00,80.4,37.0,28.76,SW,232,3.1,5.4,21,0.00,,SCT250,0.00,VWS V14.00,2013-07-20 02:46:00,
2013-07-19 21:51:00,80.2,36.8,28.76,West,261,4.0,4.9,21,0.00,,SCT250,0.00,VWS V14.00,2013-07-20 02:51:00,
2013-07-19 21:56:00,80.1,36.7,28.76,West,269,3.1,4.9,21,0.00,,SCT250,0.00,VWS V14.00,2013-07-20 02:56:00,
2013-07-19 22:01:00,79.9,36.5,28.76,WSW,237,0.0,3.1,21,0.00,,SCT250,0.00,VWS V14.00,2013-07-20 03:01:00,
2013-07-19 22:06:00,79.3,37.2,28.76,NW,304,2.2,3.6,22,0.00,,SCT250,0.00,VWS V14.00,2013-07-20 03:06:00,
2013-07-19 22:11:00,78.8,37.9,28.76,West,278,0.0,0.0,23,0.00,,SCT250,0.00,VWS V14.00,2013-07-20 03:11:00,
2013-07-19 22:16:00,78.4,38.7,28.76,WSW,249,0.0,4.0,24,0.00,,SCT250,0.00,VWS V14.00,2013-07-20 03:16:00,
2013-07-19 22:21:00,78.1,39.4,28.76,West,275,0.0,0.0,25,0.00,,SCT250,0.00,VWS V14.00,2013-07-20 03:21:00,
2013-07-19 22:26:00,77.5,40.0,28.76,WSW,242,0.0,3.6,26,0.00,,SCT250,0.00,VWS V14.00,2013-07-20 03:26:00,
2013-07-19 22:31:00,77.4,40.8,28.76,West,265,0.0,2.7,27,0.00,,SCT250,0.00,VWS V14.00,2013-07-20 03:31:00,
2013-07-19 22:36:00,77.2,40.7,28.76,SW,231,0.0,2.7,27,0.00,,SCT250,0.00,VWS V14.00,2013-07-20 03:36:00,
2013-07-19 22:41:00,77.0,41.4,28.76,West,280,0.0,3.1,28,0.00,,SCT250,0.00,VWS V14.00,2013-07-20 03:41:00,
2013-07-19 22:46:00,76.8,40.3,28.76,NNE,17,0.0,3.1,27,0.00,,SCT250,0.00,VWS V14.00,2013-07-20 03:46:00,
2013-07-19 22:51:00,76.3,41.7,28.76,NNE,17,0.0,0.0,29,0.00,,SCT250,0.00,VWS V14.00,2013-07-20 03:51:00,
2013-07-19 22:56:00,75.7,43.0,28.76,NNE,17,0.0,0.0,31,0.00,,SCT250,0.00,VWS V14.00,2013-07-20 03:56:00,
2013-07-19 23:01:00,75.2,42.5,28.76,SW,226,0.0,2.7,31,0.00,,SCT150,0.00,VWS V14.00,2013-07-20 04:01:00,
2013-07-19 23:02:00,75.2,42.5,28.76,SW,226,0.0,2.7,31,0.00,,SCT150,0.00,VWS V14.00,2013-07-20 04:02:00,
2013-07-19 23:07:00,75.0,43.2,28.76,SW,226,0.0,2.7,32,0.00,,SCT150,0.00,VWS V14.00,2013-07-20 04:07:00,
2013-07-19 23:12:00,75.0,43.2,28.79,West,274,0.0,0.0,32,0.00,,SCT150,0.00,VWS V14.00,2013-07-20 04:12:00,
2013-07-19 23:17:00,74.7,42.9,28.79,West,265,0.0,0.0,32,0.00,,SCT150,0.00,VWS V14.00,2013-07-20 04:17:00,
2013-07-19 23:22:00,74.3,42.6,28.79,West,265,0.0,0.0,32,0.00,,SCT150,0.00,VWS V14.00,2013-07-20 04:22:00,
2013-07-19 23:26:00,73.6,41.9,28.79,West,265,0.0,0.0,32,0.00,,SCT150,0.00,VWS V14.00,2013-07-20 04:26:00,
2013-07-19 23:31:00,73.0,42.3,28.79,West,265,0.0,0.0,33,0.00,,SCT150,0.00,VWS V14.00,2013-07-20 04:31:00,
2013-07-19 23:36:00,72.7,42.7,28.79,West,265,0.0,0.0,34,0.00,,SCT150,0.00,VWS V14.00,2013-07-20 04:36:00,
2013-07-19 23:41:00,72.5,43.3,28.79,NW,326,0.0,0.0,35,0.00,,SCT150,0.00,VWS V14.00,2013-07-20 04:41:00,
2013-07-19 23:46:00,72.7,44.9,28.79,NW,326,0.0,0.0,37,0.00,,SCT150,0.00,VWS V14.00,2013-07-20 04:46:00,
2013-07-19 23:51:00,72.7,44.2,28.79,NW,322,0.0,0.0,36,0.00,,SCT150,0.00,VWS V14.00,2013-07-20 04:51:00,
2013-07-19 23:56:00,72.7,44.2,28.79,WSW,252,0.0,0.0,36,0.00,,SCT150,0.00,VWS V14.00,2013-07-20 04:56:00,